Year,Month,Day,Hour,Minute,Value (Times are PST for temperature in C)
2010,06,12,00,00,11.90
2010,06,12,00,01,11.90
2010,06,12,00,02,11.80
2010,06,12,00,03,11.80
2010,06,12,00,04,11.80
2010,06,12,00,05,11.80
2010,06,12,00,06,11.70
2010,06,12,00,07,11.70
2010,06,12,00,08,11.60
2010,06,12,00,09,11.60
2010,06,12,00,10,11.60
2010,06,12,00,11,11.60
2010,06,12,00,12,11.60
2010,06,12,00,13,11.50
2010,06,12,00,14,11.40
2010,06,12,00,15,11.40
2010,06,12,00,16,11.40
2010,06,12,00,17,11.40
2010,06,12,00,18,11.40
2010,06,12,00,19,11.40
2010,06,12,00,20,11.30
2010,06,12,00,21,11.30
2010,06,12,00,22,11.30
2010,06,12,00,23,11.30
2010,06,12,00,24,11.20
2010,06,12,00,25,11.20
2010,06,12,00,26,11.20
2010,06,12,00,27,11.20
2010,06,12,00,28,11.20
2010,06,12,00,29,11.20
2010,06,12,00,30,11.20
2010,06,12,00,31,11.20
2010,06,12,00,32,11.20
2010,06,12,00,33,11.20
2010,06,12,00,34,11.10
2010,06,12,00,35,11.10
2010,06,12,00,36,11.10
2010,06,12,00,37,11.10
2010,06,12,00,38,11.10
2010,06,12,00,39,11.00
2010,06,12,00,40,10.90
2010,06,12,00,41,10.90
2010,06,12,00,42,10.90
2010,06,12,00,43,10.90
2010,06,12,00,44,10.90
2010,06,12,00,45,10.90
2010,06,12,00,46,10.80
2010,06,12,00,47,10.80
2010,06,12,00,48,10.80
2010,06,12,00,49,10.70
2010,06,12,00,50,10.70
2010,06,12,00,51,10.70
2010,06,12,00,52,10.80
2010,06,12,00,53,10.80
2010,06,12,00,54,10.80
2010,06,12,00,55,10.80
2010,06,12,00,56,10.70
2010,06,12,00,57,10.70
2010,06,12,00,58,10.70
2010,06,12,00,59,10.70
2010,06,12,01,00,10.70
2010,06,12,01,01,10.70
2010,06,12,01,02,10.70
2010,06,12,01,03,10.60
2010,06,12,01,04,10.60
2010,06,12,01,05,10.60
2010,06,12,01,06,10.60
2010,06,12,01,07,10.60
2010,06,12,01,08,10.70
2010,06,12,01,09,10.70
2010,06,12,01,10,10.70
2010,06,12,01,11,10.60
2010,06,12,01,12,10.60
2010,06,12,01,13,10.60
2010,06,12,01,14,10.60
2010,06,12,01,15,10.60
2010,06,12,01,16,10.60
2010,06,12,01,17,10.60
2010,06,12,01,18,10.60
2010,06,12,01,19,10.50
2010,06,12,01,20,10.40
2010,06,12,01,21,10.40
2010,06,12,01,22,10.40
2010,06,12,01,23,10.40
2010,06,12,01,24,10.40
2010,06,12,01,25,10.40
2010,06,12,01,26,10.40
2010,06,12,01,27,10.40
2010,06,12,01,28,10.40
2010,06,12,01,29,10.40
2010,06,12,01,30,10.40
2010,06,12,01,31,10.40
2010,06,12,01,32,10.40
2010,06,12,01,33,10.40
2010,06,12,01,34,10.40
2010,06,12,01,35,10.40
2010,06,12,01,36,10.40
2010,06,12,01,37,10.40
2010,06,12,01,38,10.40
2010,06,12,01,39,10.30
2010,06,12,01,40,10.30
2010,06,12,01,41,10.30
2010,06,12,01,42,10.30
2010,06,12,01,43,10.20
2010,06,12,01,44,10.20
2010,06,12,01,45,10.20
2010,06,12,01,46,10.20
2010,06,12,01,47,10.10
2010,06,12,01,48,10.10
2010,06,12,01,49,10.10
2010,06,12,01,50,10.10
2010,06,12,01,51,10.10
2010,06,12,01,52,10.10
2010,06,12,01,53,10.10
2010,06,12,01,54,10.00
2010,06,12,01,55,9.90
2010,06,12,01,56,9.90
2010,06,12,01,57,9.90
2010,06,12,01,58,9.90
2010,06,12,01,59,9.90
2010,06,12,02,00,9.90
2010,06,12,02,01,9.90
2010,06,12,02,02,9.90
2010,06,12,02,03,9.80
2010,06,12,02,04,9.80
2010,06,12,02,05,9.80
2010,06,12,02,06,9.80
2010,06,12,02,07,9.80
2010,06,12,02,08,9.80
2010,06,12,02,09,9.80
2010,06,12,02,10,9.80
2010,06,12,02,11,9.70
2010,06,12,02,12,9.70
2010,06,12,02,13,9.70
2010,06,12,02,14,9.70
2010,06,12,02,15,9.70
2010,06,12,02,16,9.70
2010,06,12,02,17,9.70
2010,06,12,02,18,9.70
2010,06,12,02,19,9.70
2010,06,12,02,20,9.60
2010,06,12,02,21,9.60
2010,06,12,02,22,9.60
2010,06,12,02,23,9.60
2010,06,12,02,24,9.60
2010,06,12,02,25,9.50
2010,06,12,02,26,9.50
2010,06,12,02,27,9.50
2010,06,12,02,28,9.50
2010,06,12,02,29,9.40
2010,06,12,02,30,9.40
2010,06,12,02,31,9.40
2010,06,12,02,32,9.40
2010,06,12,02,33,9.40
2010,06,12,02,34,9.40
2010,06,12,02,35,9.40
2010,06,12,02,36,9.30
2010,06,12,02,37,9.30
2010,06,12,02,38,9.30
2010,06,12,02,39,9.30
2010,06,12,02,40,9.30
2010,06,12,02,41,9.30
2010,06,12,02,42,9.30
2010,06,12,02,43,9.30
2010,06,12,02,44,9.20
2010,06,12,02,45,9.20
2010,06,12,02,46,9.20
2010,06,12,02,47,9.20
2010,06,12,02,48,9.20
2010,06,12,02,49,9.20
2010,06,12,02,50,9.10
2010,06,12,02,51,9.10
2010,06,12,02,52,9.10
2010,06,12,02,53,9.10
2010,06,12,02,54,9.10
2010,06,12,02,55,9.10
2010,06,12,02,56,9.20
2010,06,12,02,57,9.20
2010,06,12,02,58,9.20
2010,06,12,02,59,9.20
2010,06,12,03,00,9.10
2010,06,12,03,01,9.10
2010,06,12,03,02,9.10
2010,06,12,03,03,9.10
2010,06,12,03,04,9.10
2010,06,12,03,05,9.00
2010,06,12,03,06,9.00
2010,06,12,03,07,9.00
2010,06,12,03,08,9.00
2010,06,12,03,09,9.00
2010,06,12,03,10,8.90
2010,06,12,03,11,8.90
2010,06,12,03,12,8.90
2010,06,12,03,13,8.90
2010,06,12,03,14,8.90
2010,06,12,03,15,8.80
2010,06,12,03,16,8.80
2010,06,12,03,17,8.80
2010,06,12,03,18,8.80
2010,06,12,03,19,8.80
2010,06,12,03,20,8.80
2010,06,12,03,21,8.80
2010,06,12,03,22,8.80
2010,06,12,03,23,8.70
2010,06,12,03,24,8.70
2010,06,12,03,25,8.70
2010,06,12,03,26,8.70
2010,06,12,03,27,8.70
2010,06,12,03,28,8.70
2010,06,12,03,29,8.70
2010,06,12,03,30,8.70
2010,06,12,03,31,8.70
2010,06,12,03,32,8.70
2010,06,12,03,33,8.70
2010,06,12,03,34,8.70
2010,06,12,03,35,8.70
2010,06,12,03,36,8.70
2010,06,12,03,37,8.70
2010,06,12,03,38,8.70
2010,06,12,03,39,8.70
2010,06,12,03,40,8.70
2010,06,12,03,41,8.70
2010,06,12,03,42,8.70
2010,06,12,03,43,8.70
2010,06,12,03,44,8.70
2010,06,12,03,45,8.70
2010,06,12,03,46,8.70
2010,06,12,03,47,8.70
2010,06,12,03,48,8.70
2010,06,12,03,49,8.70
2010,06,12,03,50,8.70
2010,06,12,03,51,8.70
2010,06,12,03,52,8.70
2010,06,12,03,53,8.70
2010,06,12,03,54,8.70
2010,06,12,03,55,8.70
2010,06,12,03,56,8.70
2010,06,12,03,57,8.70
2010,06,12,03,58,8.70
2010,06,12,03,59,8.70
2010,06,12,04,00,8.60
2010,06,12,04,01,8.60
2010,06,12,04,02,8.60
2010,06,12,04,03,8.60
2010,06,12,04,04,8.60
2010,06,12,04,05,8.60
2010,06,12,04,06,8.60
2010,06,12,04,07,8.60
2010,06,12,04,08,8.60
2010,06,12,04,09,8.60
2010,06,12,04,10,8.60
2010,06,12,04,11,8.50
2010,06,12,04,12,8.50
2010,06,12,04,13,8.50
2010,06,12,04,14,8.60
2010,06,12,04,15,8.60
2010,06,12,04,16,8.60
2010,06,12,04,17,8.60
2010,06,12,04,18,8.50
2010,06,12,04,19,8.50
2010,06,12,04,20,8.50
2010,06,12,04,21,8.50
2010,06,12,04,22,8.50
2010,06,12,04,23,8.50
2010,06,12,04,24,8.40
2010,06,12,04,25,8.40
2010,06,12,04,26,8.40
2010,06,12,04,27,8.40
2010,06,12,04,28,8.40
2010,06,12,04,29,8.30
2010,06,12,04,30,8.30
2010,06,12,04,31,8.30
2010,06,12,04,32,8.30
2010,06,12,04,33,8.30
2010,06,12,04,34,8.30
2010,06,12,04,35,8.30
2010,06,12,04,36,8.20
2010,06,12,04,37,8.20
2010,06,12,04,38,8.20
2010,06,12,04,39,8.20
2010,06,12,04,40,8.20
2010,06,12,04,41,8.20
2010,06,12,04,42,8.20
2010,06,12,04,43,8.20
2010,06,12,04,44,8.20
2010,06,12,04,45,8.20
2010,06,12,04,46,8.20
2010,06,12,04,47,8.20
2010,06,12,04,48,8.20
2010,06,12,04,49,8.20
2010,06,12,04,50,8.20
2010,06,12,04,51,8.20
2010,06,12,04,52,8.20
2010,06,12,04,53,8.20
2010,06,12,04,54,8.20
2010,06,12,04,55,8.20
2010,06,12,04,56,8.20
2010,06,12,04,57,8.20
2010,06,12,04,58,8.10
2010,06,12,04,59,8.10
2010,06,12,05,00,8.10
2010,06,12,05,01,8.10
2010,06,12,05,02,8.10
2010,06,12,05,03,8.10
2010,06,12,05,04,8.10
2010,06,12,05,05,8.10
2010,06,12,05,06,8.10
2010,06,12,05,07,8.10
2010,06,12,05,08,8.00
2010,06,12,05,09,8.00
2010,06,12,05,10,8.00
2010,06,12,05,11,8.00
2010,06,12,05,12,8.00
2010,06,12,05,13,8.00
2010,06,12,05,14,7.90
2010,06,12,05,15,7.90
2010,06,12,05,16,7.90
2010,06,12,05,17,7.90
2010,06,12,05,18,7.90
2010,06,12,05,19,7.90
2010,06,12,05,20,7.90
2010,06,12,05,21,7.90
2010,06,12,05,22,7.90
2010,06,12,05,23,7.90
2010,06,12,05,24,7.90
2010,06,12,05,25,7.90
2010,06,12,05,26,7.90
2010,06,12,05,27,7.90
2010,06,12,05,28,7.90
2010,06,12,05,29,7.90
2010,06,12,05,30,7.90
2010,06,12,05,31,7.80
2010,06,12,05,32,7.80
2010,06,12,05,33,7.80
2010,06,12,05,34,7.80
2010,06,12,05,35,7.80
2010,06,12,05,36,7.80
2010,06,12,05,37,7.80
2010,06,12,05,38,7.80
2010,06,12,05,39,7.80
2010,06,12,05,40,7.80
2010,06,12,05,41,7.80
2010,06,12,05,42,7.80
2010,06,12,05,43,7.80
2010,06,12,05,44,7.90
2010,06,12,05,45,7.90
2010,06,12,05,46,8.00
2010,06,12,05,47,8.00
2010,06,12,05,48,8.10
2010,06,12,05,49,8.10
2010,06,12,05,50,8.10
2010,06,12,05,51,8.10
2010,06,12,05,52,8.20
2010,06,12,05,53,8.20
2010,06,12,05,54,8.20
2010,06,12,05,55,8.20
2010,06,12,05,56,8.30
2010,06,12,05,57,8.40
2010,06,12,05,58,8.40
2010,06,12,05,59,8.50
2010,06,12,06,00,8.60
2010,06,12,06,01,8.60
2010,06,12,06,02,8.70
2010,06,12,06,03,8.70
2010,06,12,06,04,8.80
2010,06,12,06,05,8.80
2010,06,12,06,06,8.90
2010,06,12,06,07,8.90
2010,06,12,06,08,8.90
2010,06,12,06,09,9.00
2010,06,12,06,10,9.00
2010,06,12,06,11,9.10
2010,06,12,06,12,9.10
2010,06,12,06,13,9.20
2010,06,12,06,14,9.20
2010,06,12,06,15,9.20
2010,06,12,06,16,9.20
2010,06,12,06,17,9.30
2010,06,12,06,18,9.40
2010,06,12,06,19,9.40
2010,06,12,06,20,9.40
2010,06,12,06,21,9.50
2010,06,12,06,22,9.50
2010,06,12,06,23,9.50
2010,06,12,06,24,9.50
2010,06,12,06,25,9.60
2010,06,12,06,26,9.60
2010,06,12,06,27,9.60
2010,06,12,06,28,9.70
2010,06,12,06,29,9.70
2010,06,12,06,30,9.70
2010,06,12,06,31,9.80
2010,06,12,06,32,9.80
2010,06,12,06,33,9.90
2010,06,12,06,34,9.90
2010,06,12,06,35,10.10
2010,06,12,06,36,10.10
2010,06,12,06,37,10.20
2010,06,12,06,38,10.30
2010,06,12,06,39,10.30
2010,06,12,06,40,10.40
2010,06,12,06,41,10.40
2010,06,12,06,42,10.40
2010,06,12,06,43,10.40
2010,06,12,06,44,10.40
2010,06,12,06,45,10.50
2010,06,12,06,46,10.60
2010,06,12,06,47,10.60
2010,06,12,06,48,10.60
2010,06,12,06,49,10.60
2010,06,12,06,50,10.70
2010,06,12,06,51,10.70
2010,06,12,06,52,10.80
2010,06,12,06,53,10.90
2010,06,12,06,54,10.90
2010,06,12,06,55,11.00
2010,06,12,06,56,11.10
2010,06,12,06,57,11.20
2010,06,12,06,58,11.30
2010,06,12,06,59,11.30
2010,06,12,07,00,11.40
2010,06,12,07,01,11.40
2010,06,12,07,02,11.50
2010,06,12,07,03,11.60
2010,06,12,07,04,11.60
2010,06,12,07,05,11.70
2010,06,12,07,06,11.80
2010,06,12,07,07,11.80
2010,06,12,07,08,11.80
2010,06,12,07,09,11.90
2010,06,12,07,10,12.00
2010,06,12,07,11,12.10
2010,06,12,07,12,12.20
2010,06,12,07,13,12.20
2010,06,12,07,14,12.20
2010,06,12,07,15,12.20
2010,06,12,07,16,12.30
2010,06,12,07,17,12.30
2010,06,12,07,18,12.30
2010,06,12,07,19,12.40
2010,06,12,07,20,12.50
2010,06,12,07,21,12.50
2010,06,12,07,22,12.50
2010,06,12,07,23,12.60
2010,06,12,07,24,12.70
2010,06,12,07,25,12.70
2010,06,12,07,26,12.80
2010,06,12,07,27,12.80
2010,06,12,07,28,12.90
2010,06,12,07,29,13.00
2010,06,12,07,30,13.10
2010,06,12,07,31,13.20
2010,06,12,07,32,13.20
2010,06,12,07,33,13.30
2010,06,12,07,34,13.30
2010,06,12,07,35,13.30
2010,06,12,07,36,13.30
2010,06,12,07,37,13.30
2010,06,12,07,38,13.30
2010,06,12,07,39,13.30
2010,06,12,07,40,13.40
2010,06,12,07,41,13.40
2010,06,12,07,42,13.40
2010,06,12,07,43,13.40
2010,06,12,07,44,13.40
2010,06,12,07,45,13.40
2010,06,12,07,46,13.40
2010,06,12,07,47,13.50
2010,06,12,07,48,13.50
2010,06,12,07,49,13.50
2010,06,12,07,50,13.60
2010,06,12,07,51,13.60
2010,06,12,07,52,13.60
2010,06,12,07,53,13.60
2010,06,12,07,54,13.70
2010,06,12,07,55,13.70
2010,06,12,07,56,13.70
2010,06,12,07,57,13.70
2010,06,12,07,58,13.80
2010,06,12,07,59,13.80
2010,06,12,08,00,13.90
2010,06,12,08,01,13.90
2010,06,12,08,02,13.90
2010,06,12,08,03,13.90
2010,06,12,08,04,14.00
2010,06,12,08,05,14.00
2010,06,12,08,06,14.10
2010,06,12,08,07,14.10
2010,06,12,08,08,14.20
2010,06,12,08,09,14.20
2010,06,12,08,10,14.20
2010,06,12,08,11,14.20
2010,06,12,08,12,14.20
2010,06,12,08,13,14.30
2010,06,12,08,14,14.40
2010,06,12,08,15,14.40
2010,06,12,08,16,14.50
2010,06,12,08,17,14.50
2010,06,12,08,18,14.60
2010,06,12,08,19,14.80
2010,06,12,08,20,14.90
2010,06,12,08,21,14.90
2010,06,12,08,22,15.00
2010,06,12,08,23,15.00
2010,06,12,08,24,15.10
2010,06,12,08,25,15.10
2010,06,12,08,26,15.10
2010,06,12,08,27,15.20
2010,06,12,08,28,15.20
2010,06,12,08,29,15.30
2010,06,12,08,30,15.30
2010,06,12,08,31,15.40
2010,06,12,08,32,15.50
2010,06,12,08,33,15.60
2010,06,12,08,34,15.60
2010,06,12,08,35,15.60
2010,06,12,08,36,15.70
2010,06,12,08,37,15.80
2010,06,12,08,38,15.80
2010,06,12,08,39,15.80
2010,06,12,08,40,15.80
2010,06,12,08,41,15.60
2010,06,12,08,42,15.60
2010,06,12,08,43,15.50
2010,06,12,08,44,15.50
2010,06,12,08,45,15.50
2010,06,12,08,46,15.60
2010,06,12,08,47,15.60
2010,06,12,08,48,15.70
2010,06,12,08,49,15.80
2010,06,12,08,50,15.90
2010,06,12,08,51,16.00
2010,06,12,08,52,16.10
2010,06,12,08,53,16.20
2010,06,12,08,54,16.30
2010,06,12,08,55,16.30
2010,06,12,08,56,16.20
2010,06,12,08,57,16.10
2010,06,12,08,58,16.10
2010,06,12,08,59,16.10
2010,06,12,09,00,16.00
2010,06,12,09,01,15.90
2010,06,12,09,02,15.90
2010,06,12,09,03,15.90
2010,06,12,09,04,15.80
2010,06,12,09,05,15.80
2010,06,12,09,06,15.80
2010,06,12,09,07,15.90
2010,06,12,09,08,15.90
2010,06,12,09,09,16.00
2010,06,12,09,10,16.10
2010,06,12,09,11,16.20
2010,06,12,09,12,16.30
2010,06,12,09,13,16.30
2010,06,12,09,14,16.30
2010,06,12,09,15,16.30
2010,06,12,09,16,16.30
2010,06,12,09,17,16.30
2010,06,12,09,18,16.20
2010,06,12,09,19,16.20
2010,06,12,09,20,16.20
2010,06,12,09,21,16.20
2010,06,12,09,22,16.20
2010,06,12,09,23,16.20
2010,06,12,09,24,16.20
2010,06,12,09,25,16.20
2010,06,12,09,26,16.30
2010,06,12,09,27,16.40
2010,06,12,09,28,16.50
2010,06,12,09,29,16.60
2010,06,12,09,30,16.70
2010,06,12,09,31,16.70
2010,06,12,09,32,16.80
2010,06,12,09,33,16.80
2010,06,12,09,34,16.70
2010,06,12,09,35,16.70
2010,06,12,09,36,16.70
2010,06,12,09,37,16.70
2010,06,12,09,38,16.70
2010,06,12,09,39,16.80
2010,06,12,09,40,16.90
2010,06,12,09,41,16.90
2010,06,12,09,42,16.90
2010,06,12,09,43,17.00
2010,06,12,09,44,17.00
2010,06,12,09,45,17.10
2010,06,12,09,46,17.20
2010,06,12,09,47,17.30
2010,06,12,09,48,17.30
2010,06,12,09,49,17.30
2010,06,12,09,50,17.30
2010,06,12,09,51,17.30
2010,06,12,09,52,17.40
2010,06,12,09,53,17.40
2010,06,12,09,54,17.50
2010,06,12,09,55,17.50
2010,06,12,09,56,17.50
2010,06,12,09,57,17.50
2010,06,12,09,58,17.60
2010,06,12,09,59,17.60
2010,06,12,10,00,17.60
2010,06,12,10,01,17.70
2010,06,12,10,02,17.80
2010,06,12,10,03,17.80
2010,06,12,10,04,17.70
2010,06,12,10,05,17.60
2010,06,12,10,06,17.50
2010,06,12,10,07,17.30
2010,06,12,10,08,17.10
2010,06,12,10,09,17.10
2010,06,12,10,10,17.00
2010,06,12,10,11,16.90
2010,06,12,10,12,16.80
2010,06,12,10,13,16.80
2010,06,12,10,14,16.70
2010,06,12,10,15,16.70
2010,06,12,10,16,16.70
2010,06,12,10,17,16.70
2010,06,12,10,18,16.70
2010,06,12,10,19,16.70
2010,06,12,10,20,16.70
2010,06,12,10,21,16.70
2010,06,12,10,22,16.70
2010,06,12,10,23,16.70
2010,06,12,10,24,16.70
2010,06,12,10,25,16.60
2010,06,12,10,26,16.60
2010,06,12,10,27,16.70
2010,06,12,10,28,16.70
2010,06,12,10,29,16.60
2010,06,12,10,30,16.50
2010,06,12,10,31,16.50
2010,06,12,10,32,16.50
2010,06,12,10,33,16.30
2010,06,12,10,34,16.20
2010,06,12,10,35,16.10
2010,06,12,10,36,16.10
2010,06,12,10,37,16.10
2010,06,12,10,38,16.10
2010,06,12,10,39,16.10
2010,06,12,10,40,16.10
2010,06,12,10,41,16.10
2010,06,12,10,42,16.20
2010,06,12,10,43,16.30
2010,06,12,10,44,16.40
2010,06,12,10,45,16.40
2010,06,12,10,46,16.40
2010,06,12,10,47,16.30
2010,06,12,10,48,16.30
2010,06,12,10,49,16.40
2010,06,12,10,50,16.30
2010,06,12,10,51,16.20
2010,06,12,10,52,16.20
2010,06,12,10,53,16.20
2010,06,12,10,54,16.20
2010,06,12,10,55,16.20
2010,06,12,10,56,16.20
2010,06,12,10,57,16.20
2010,06,12,10,58,16.10
2010,06,12,10,59,16.10
2010,06,12,11,00,16.10
2010,06,12,11,01,16.20
2010,06,12,11,02,16.20
2010,06,12,11,03,16.20
2010,06,12,11,04,16.30
2010,06,12,11,05,16.40
2010,06,12,11,06,16.40
2010,06,12,11,07,16.40
2010,06,12,11,08,16.30
2010,06,12,11,09,16.30
2010,06,12,11,10,16.40
2010,06,12,11,11,16.40
2010,06,12,11,12,16.30
2010,06,12,11,13,16.30
2010,06,12,11,14,16.40
2010,06,12,11,15,16.50
2010,06,12,11,16,16.60
2010,06,12,11,17,16.70
2010,06,12,11,18,16.60
2010,06,12,11,19,16.60
2010,06,12,11,20,16.50
2010,06,12,11,21,16.50
2010,06,12,11,22,16.60
2010,06,12,11,23,16.60
2010,06,12,11,24,16.60
2010,06,12,11,25,16.60
2010,06,12,11,26,16.60
2010,06,12,11,27,16.60
2010,06,12,11,28,16.70
2010,06,12,11,29,16.70
2010,06,12,11,30,16.70
2010,06,12,11,31,16.70
2010,06,12,11,32,16.80
2010,06,12,11,33,16.90
2010,06,12,11,34,16.80
2010,06,12,11,35,16.90
2010,06,12,11,36,16.90
2010,06,12,11,37,17.00
2010,06,12,11,38,17.10
2010,06,12,11,39,17.20
2010,06,12,11,40,17.30
2010,06,12,11,41,17.30
2010,06,12,11,42,17.50
2010,06,12,11,43,17.60
2010,06,12,11,44,17.70
2010,06,12,11,45,17.70
2010,06,12,11,46,17.70
2010,06,12,11,47,17.80
2010,06,12,11,48,17.70
2010,06,12,11,49,17.70
2010,06,12,11,50,17.60
2010,06,12,11,51,17.60
2010,06,12,11,52,17.60
2010,06,12,11,53,17.50
2010,06,12,11,54,17.50
2010,06,12,11,55,17.50
2010,06,12,11,56,17.60
2010,06,12,11,57,17.70
2010,06,12,11,58,17.70
2010,06,12,11,59,17.80
2010,06,12,12,00,17.90
2010,06,12,12,01,17.90
2010,06,12,12,02,17.80
2010,06,12,12,03,17.60
2010,06,12,12,04,17.50
2010,06,12,12,05,17.40
2010,06,12,12,06,17.30
2010,06,12,12,07,17.30
2010,06,12,12,08,17.30
2010,06,12,12,09,17.30
2010,06,12,12,10,17.40
2010,06,12,12,11,17.40
2010,06,12,12,12,17.40
2010,06,12,12,13,17.40
2010,06,12,12,14,17.40
2010,06,12,12,15,17.30
2010,06,12,12,16,17.20
2010,06,12,12,17,17.10
2010,06,12,12,18,17.00
2010,06,12,12,19,17.00
2010,06,12,12,20,17.00
2010,06,12,12,21,17.00
2010,06,12,12,22,17.00
2010,06,12,12,23,16.90
2010,06,12,12,24,16.90
2010,06,12,12,25,16.90
2010,06,12,12,26,17.00
2010,06,12,12,27,17.00
2010,06,12,12,28,16.90
2010,06,12,12,29,16.90
2010,06,12,12,30,17.00
2010,06,12,12,31,17.00
2010,06,12,12,32,16.90
2010,06,12,12,33,16.80
2010,06,12,12,34,17.00
2010,06,12,12,35,17.00
2010,06,12,12,36,16.90
2010,06,12,12,37,16.90
2010,06,12,12,38,17.00
2010,06,12,12,39,17.00
2010,06,12,12,40,17.00
2010,06,12,12,41,17.10
2010,06,12,12,42,17.10
2010,06,12,12,43,17.20
2010,06,12,12,44,17.20
2010,06,12,12,45,17.10
2010,06,12,12,46,17.10
2010,06,12,12,47,17.10
2010,06,12,12,48,17.10
2010,06,12,12,49,17.10
2010,06,12,12,50,17.20
2010,06,12,12,51,17.20
2010,06,12,12,52,17.10
2010,06,12,12,53,17.10
2010,06,12,12,54,17.10
2010,06,12,12,55,17.10
2010,06,12,12,56,17.10
2010,06,12,12,57,17.10
2010,06,12,12,58,17.10
2010,06,12,12,59,17.20
2010,06,12,13,00,17.30
2010,06,12,13,01,17.30
2010,06,12,13,02,17.30
2010,06,12,13,03,17.40
2010,06,12,13,04,17.50
2010,06,12,13,05,17.70
2010,06,12,13,06,17.70
2010,06,12,13,07,17.50
2010,06,12,13,08,17.40
2010,06,12,13,09,17.40
2010,06,12,13,10,17.30
2010,06,12,13,11,17.30
2010,06,12,13,12,17.30
2010,06,12,13,13,17.40
2010,06,12,13,14,17.50
2010,06,12,13,15,17.50
2010,06,12,13,16,17.50
2010,06,12,13,17,17.40
2010,06,12,13,18,17.40
2010,06,12,13,19,17.50
2010,06,12,13,20,17.60
2010,06,12,13,21,17.60
2010,06,12,13,22,17.50
2010,06,12,13,23,17.50
2010,06,12,13,24,17.50
2010,06,12,13,25,17.60
2010,06,12,13,26,17.70
2010,06,12,13,27,17.80
2010,06,12,13,28,17.80
2010,06,12,13,29,17.80
2010,06,12,13,30,17.80
2010,06,12,13,31,17.90
2010,06,12,13,32,17.90
2010,06,12,13,33,17.90
2010,06,12,13,34,17.90
2010,06,12,13,35,17.90
2010,06,12,13,36,17.80
2010,06,12,13,37,17.90
2010,06,12,13,38,17.90
2010,06,12,13,39,17.80
2010,06,12,13,40,17.80
2010,06,12,13,41,17.70
2010,06,12,13,42,17.80
2010,06,12,13,43,17.80
2010,06,12,13,44,17.90
2010,06,12,13,45,17.90
2010,06,12,13,46,17.90
2010,06,12,13,47,17.90
2010,06,12,13,48,17.90
2010,06,12,13,49,17.90
2010,06,12,13,50,17.90
2010,06,12,13,51,17.90
2010,06,12,13,52,18.10
2010,06,12,13,53,18.20
2010,06,12,13,54,18.20
2010,06,12,13,55,18.20
2010,06,12,13,56,18.20
2010,06,12,13,57,18.20
2010,06,12,13,58,18.20
2010,06,12,13,59,18.40
2010,06,12,14,00,18.50
2010,06,12,14,01,18.60
2010,06,12,14,02,18.60
2010,06,12,14,03,18.60
2010,06,12,14,04,18.70
2010,06,12,14,05,18.60
2010,06,12,14,06,18.40
2010,06,12,14,07,18.40
2010,06,12,14,08,18.40
2010,06,12,14,09,18.50
2010,06,12,14,10,18.70
2010,06,12,14,11,18.80
2010,06,12,14,12,18.60
2010,06,12,14,13,18.60
2010,06,12,14,14,18.60
2010,06,12,14,15,18.50
2010,06,12,14,16,18.60
2010,06,12,14,17,18.60
2010,06,12,14,18,18.50
2010,06,12,14,19,18.60
2010,06,12,14,20,18.60
2010,06,12,14,21,18.70
2010,06,12,14,22,18.70
2010,06,12,14,23,18.80
2010,06,12,14,24,18.90
2010,06,12,14,25,18.90
2010,06,12,14,26,18.90
2010,06,12,14,27,18.80
2010,06,12,14,28,18.90
2010,06,12,14,29,18.90
2010,06,12,14,30,19.00
2010,06,12,14,31,19.00
2010,06,12,14,32,18.90
2010,06,12,14,33,18.80
2010,06,12,14,34,18.70
2010,06,12,14,35,18.80
2010,06,12,14,36,19.00
2010,06,12,14,37,19.10
2010,06,12,14,38,19.10
2010,06,12,14,39,19.10
2010,06,12,14,40,18.90
2010,06,12,14,41,18.90
2010,06,12,14,42,19.10
2010,06,12,14,43,19.10
2010,06,12,14,44,18.90
2010,06,12,14,45,18.70
2010,06,12,14,46,18.70
2010,06,12,14,47,18.70
2010,06,12,14,48,18.70
2010,06,12,14,49,18.70
2010,06,12,14,50,18.80
2010,06,12,14,51,18.70
2010,06,12,14,52,18.60
2010,06,12,14,53,18.60
2010,06,12,14,54,18.50
2010,06,12,14,55,18.50
2010,06,12,14,56,18.40
2010,06,12,14,57,18.50
2010,06,12,14,58,18.50
2010,06,12,14,59,18.60
2010,06,12,15,00,18.70
2010,06,12,15,01,18.60
2010,06,12,15,02,18.60
2010,06,12,15,03,18.60
2010,06,12,15,04,18.70
2010,06,12,15,05,18.80
2010,06,12,15,06,18.80
2010,06,12,15,07,18.90
2010,06,12,15,08,18.80
2010,06,12,15,09,18.80
2010,06,12,15,10,18.80
2010,06,12,15,11,18.80
2010,06,12,15,12,18.80
2010,06,12,15,13,18.90
2010,06,12,15,14,19.00
2010,06,12,15,15,19.20
2010,06,12,15,16,19.30
2010,06,12,15,17,19.30
2010,06,12,15,18,19.20
2010,06,12,15,19,19.30
2010,06,12,15,20,19.30
2010,06,12,15,21,19.30
2010,06,12,15,22,19.30
2010,06,12,15,23,19.30
2010,06,12,15,24,19.30
2010,06,12,15,25,19.40
2010,06,12,15,26,19.40
2010,06,12,15,27,19.40
2010,06,12,15,28,19.60
2010,06,12,15,29,19.70
2010,06,12,15,30,19.80
2010,06,12,15,31,19.80
2010,06,12,15,32,19.70
2010,06,12,15,33,19.60
2010,06,12,15,34,19.60
2010,06,12,15,35,19.60
2010,06,12,15,36,19.70
2010,06,12,15,37,19.80
2010,06,12,15,38,19.80
2010,06,12,15,39,19.80
2010,06,12,15,40,19.80
2010,06,12,15,41,19.90
2010,06,12,15,42,19.90
2010,06,12,15,43,19.80
2010,06,12,15,44,19.80
2010,06,12,15,45,19.80
2010,06,12,15,46,19.90
2010,06,12,15,47,19.90
2010,06,12,15,48,19.90
2010,06,12,15,49,19.90
2010,06,12,15,50,19.90
2010,06,12,15,51,19.90
2010,06,12,15,52,20.10
2010,06,12,15,53,20.20
2010,06,12,15,54,20.30
2010,06,12,15,55,20.40
2010,06,12,15,56,20.30
2010,06,12,15,57,20.30
2010,06,12,15,58,20.20
2010,06,12,15,59,20.10
2010,06,12,16,00,19.90
2010,06,12,16,01,19.90
2010,06,12,16,02,19.80
2010,06,12,16,03,19.80
2010,06,12,16,04,19.70
2010,06,12,16,05,19.80
2010,06,12,16,06,19.90
2010,06,12,16,07,19.90
2010,06,12,16,08,19.90
2010,06,12,16,09,19.90
2010,06,12,16,10,19.80
2010,06,12,16,11,19.70
2010,06,12,16,12,19.80
2010,06,12,16,13,19.70
2010,06,12,16,14,19.70
2010,06,12,16,15,19.70
2010,06,12,16,16,19.60
2010,06,12,16,17,19.50
2010,06,12,16,18,19.60
2010,06,12,16,19,19.70
2010,06,12,16,20,19.90
2010,06,12,16,21,20.10
2010,06,12,16,22,20.20
2010,06,12,16,23,20.10
2010,06,12,16,24,19.80
2010,06,12,16,25,19.80
2010,06,12,16,26,19.80
2010,06,12,16,27,19.90
2010,06,12,16,28,19.80
2010,06,12,16,29,19.80
2010,06,12,16,30,19.80
2010,06,12,16,31,19.90
2010,06,12,16,32,19.90
2010,06,12,16,33,19.80
2010,06,12,16,34,19.80
2010,06,12,16,35,19.80
2010,06,12,16,36,19.80
2010,06,12,16,37,19.80
2010,06,12,16,38,19.90
2010,06,12,16,39,20.00
2010,06,12,16,40,20.20
2010,06,12,16,41,20.10
2010,06,12,16,42,20.10
2010,06,12,16,43,20.00
2010,06,12,16,44,20.00
2010,06,12,16,45,20.10
2010,06,12,16,46,20.00
2010,06,12,16,47,19.90
2010,06,12,16,48,19.90
2010,06,12,16,49,19.90
2010,06,12,16,50,19.80
2010,06,12,16,51,19.70
2010,06,12,16,52,19.70
2010,06,12,16,53,19.70
2010,06,12,16,54,19.80
2010,06,12,16,55,19.90
2010,06,12,16,56,20.00
2010,06,12,16,57,20.10
2010,06,12,16,58,20.20
2010,06,12,16,59,20.20
2010,06,12,17,00,20.00
2010,06,12,17,01,19.90
2010,06,12,17,02,19.80
2010,06,12,17,03,19.80
2010,06,12,17,04,19.80
2010,06,12,17,05,19.70
2010,06,12,17,06,19.60
2010,06,12,17,07,19.50
2010,06,12,17,08,19.40
2010,06,12,17,09,19.40
2010,06,12,17,10,19.30
2010,06,12,17,11,19.10
2010,06,12,17,12,19.10
2010,06,12,17,13,19.10
2010,06,12,17,14,19.10
2010,06,12,17,15,19.10
2010,06,12,17,16,19.10
2010,06,12,17,17,19.00
2010,06,12,17,18,19.00
2010,06,12,17,19,19.10
2010,06,12,17,20,19.10
2010,06,12,17,21,19.10
2010,06,12,17,22,19.10
2010,06,12,17,23,19.10
2010,06,12,17,24,19.10
2010,06,12,17,25,19.10
2010,06,12,17,26,19.10
2010,06,12,17,27,19.20
2010,06,12,17,28,19.20
2010,06,12,17,29,19.40
2010,06,12,17,30,19.50
2010,06,12,17,31,19.50